* Astronomy

Members Login
Post Info TOPIC: Asteroid 2004 HP79


L

Posts: 131433
Date:
Asteroid 2004 HP79
Permalink  
 


Orbital elements:
2004 HP79
Epoch 2011 Aug. 27.0 TT = JDT 2455800.5                 MPC
M 349.33086              (2000.0)            P               Q
n   0.00302036     Peri.   60.90878     -0.57348927     +0.81920306
a  47.3983980      Node   174.09244     -0.76462844     -0.53349644
e   0.1804386      Incl.    2.25510     -0.29402960     -0.21044688
P 326              H    6.7           G   0.15           U   4

MPEC 2011 - O34



__________________
Page 1 of 1  sorted by
Quick Reply

Please log in to post quick replies.



Create your own FREE Forum
Report Abuse
Powered by ActiveBoard